Flag for U.S.A. Weather past 2 weeks in Sheboygan, Wisconsin, U.S.A.

Now
50 °F

Sunny.


Feels Like: 46 °F
Forecast: 42 / 49 °F
Wind: 12 mph from Northeast

Location: Sheboygan County Memorial Airport

Current Time: Oct 21, 2014 at 4:56:50 PM

Latest Report: Oct 21, 2014 at 3:53 PM


Visibility: 10 mi

Pressure: 30.23 "Hg

Humidity: 63%

Dew point: 38 °F

Location of SheboyganLocation

Historic Weather in Sheboygan — Graph

°F

Sheboygan temperature yesterday

Maximum temperature yesterday: 55 °F (at 11:53 AM)
Minimum temperature yesterday: 45 °F (at 3:53 AM)
Average temperature yesterday: 50 °F

Past Weeks' High & Low Weather Summary

 TemperatureHumidityPressure
High63 °F (Oct 7, 12:53 PM)100% (Oct 13, 7:53 AM)30.24 "Hg (Oct 13, 7:53 AM)
Low30 °F (Oct 19, 12:53 AM)36% (Oct 8, 1:53 PM)29.48 "Hg (Oct 17, 4:53 AM)
Average49 °F79%29.83 "Hg
* Reported Oct 6 3:53 PM — Oct 21 3:53 PM, Sheboygan, Weather by CustomWeather, © 2014

Note: Actual official high and low records may vary slightly from our data, if they occured in-between our weather recording intervals... More about our weather records

Advertising

Sheboygan weather history for previous 24 hours

 ConditionsComfort  
Time TempWeatherWind HumidityBarometerVisibility
3:53 PM
Oct 21
50 °FSunny.12 mph63%30.23 "Hg10 mi
2:53 PM50 °FSunny.17 mph63%30.23 "Hg10 mi
1:53 PM50 °FOvercast.12 mph61%30.22 "Hg10 mi
12:53 PM50 °FPartly sunny.14 mph59%30.23 "Hg10 mi
11:53 AM48 °FOvercast.8 mph63%30.23 "Hg10 mi
10:53 AM47 °FOvercast.8 mph69%30.22 "Hg10 mi
9:53 AM45 °FOvercast.9 mph76%30.20 "Hg10 mi
8:53 AM45 °FOvercast.10 mph80%30.19 "Hg10 mi
7:53 AM45 °FOvercast.10 mph76%30.16 "Hg10 mi
6:53 AM45 °FOvercast.12 mph74%30.14 "Hg10 mi
5:53 AM45 °FOvercast.10 mph80%30.12 "Hg10 mi
4:53 AM45 °FOvercast.7 mph80%30.09 "Hg10 mi
3:53 AM45 °FMostly cloudy.7 mph80%30.07 "Hg10 mi
2:53 AM45 °FOvercast.8 mph80%30.06 "Hg10 mi
1:53 AM45 °FOvercast.8 mph82%30.04 "Hg10 mi
12:53 AM45 °FOvercast.6 mph82%30.03 "Hg10 mi
11:53 PM
Oct 20
47 °FOvercast.8 mph80%30.02 "Hg10 mi
10:53 PM48 °FOvercast.8 mph80%30.02 "Hg10 mi
9:53 PM48 °FOvercast.8 mph83%30.02 "Hg10 mi
8:53 PM49 °FOvercast.9 mph80%30.01 "Hg10 mi
7:53 PM49 °FOvercast.7 mph80%29.99 "Hg10 mi
6:53 PM49 °FOvercast.5 mph84%29.98 "Hg10 mi
5:53 PM52 °FMore clouds than sun.7 mph66%29.95 "Hg10 mi
4:53 PM53 °FOvercast.8 mph64%29.92 "Hg10 mi
Weather by CustomWeather, © 2014

See weather overviewHow to use our weather pages